| time (UTC) | temp F | wind direction | speed MPH | gust MPH | rain 1hr in | rain 24hr in | rain mn in | humidity % | barometer mb |
| 20260504023708 | 69 | 201 | 7.0 | 8.0 | 0.00 | 0.00 | 0.00 | 50 | 1018.1 |
| 20260504023204 | 69 | 218 | 5.0 | 6.0 | 0.00 | 0.00 | 0.00 | 51 | 1017.9 |
| 20260504022701 | 69 | 157 | 5.0 | 6.0 | 0.00 | 0.00 | 0.00 | 50 | 1017.9 |
| 20260504022156 | 69 | 193 | 7.0 | 8.0 | 0.00 | 0.00 | 0.00 | 50 | 1017.9 |
| 20260504021655 | 69 | 174 | 5.0 | 7.0 | 0.00 | 0.00 | 0.00 | 50 | 1017.9 |
| 20260504021151 | 69 | 186 | 6.0 | 7.0 | 0.00 | 0.00 | 0.00 | 49 | 1017.8 |
| 20260504020648 | 69 | 202 | 7.0 | 7.0 | 0.00 | 0.00 | 0.00 | 49 | 1017.8 |
| 20260504020144 | 70 | 201 | 5.0 | 7.0 | 0.00 | 0.00 | 0.00 | 48 | 1018.1 |
| 20260504015641 | 70 | 189 | 5.0 | 6.0 | 0.00 | 0.00 | 0.00 | 48 | 1017.8 |
| 20260504015137 | 70 | 209 | 5.0 | 6.0 | 0.00 | 0.00 | 0.00 | 48 | 1017.8 |
| 20260504014633 | 70 | 193 | 6.0 | 7.0 | 0.00 | 0.00 | 0.00 | 47 | 1017.6 |
| 20260504014130 | 70 | 205 | 4.0 | 5.0 | 0.00 | 0.00 | 0.00 | 47 | 1017.5 |
| 20260504013628 | 71 | 215 | 3.0 | 5.0 | 0.00 | 0.00 | 0.00 | 46 | 1017.5 |
| 20260504013125 | 71 | 213 | 6.0 | 8.0 | 0.00 | 0.00 | 0.00 | 46 | 1017.3 |
| 20260504012622 | 71 | 216 | 5.0 | 7.0 | 0.00 | 0.00 | 0.00 | 45 | 1017.3 |
| 20260504012120 | 71 | 199 | 6.0 | 7.0 | 0.00 | 0.00 | 0.00 | 45 | 1017.4 |
| 20260504011616 | 71 | 204 | 6.0 | 8.0 | 0.00 | 0.00 | 0.00 | 44 | 1017.4 |
| 20260504011113 | 71 | 180 | 7.0 | 9.0 | 0.00 | 0.00 | 0.00 | 44 | 1017.4 |
| 20260504010608 | 72 | 218 | 4.0 | 5.0 | 0.00 | 0.00 | 0.00 | 45 | 1017.4 |
| 20260504010105 | 72 | 229 | 5.0 | 6.0 | 0.00 | 0.00 | 0.00 | 43 | 1017.4 |
| 20260504005602 | 72 | 206 | 5.0 | 6.0 | 0.00 | 0.00 | 0.00 | 43 | 1017.6 |
| 20260504005059 | 72 | 178 | 4.0 | 5.0 | 0.00 | 0.00 | 0.00 | 43 | 1017.3 |
| 20260504004556 | 72 | 168 | 6.0 | 7.0 | 0.00 | 0.00 | 0.00 | 43 | 1017.3 |
| 20260504004054 | 73 | 196 | 7.0 | 9.0 | 0.00 | 0.00 | 0.00 | 42 | 1017.5 |
| 20260504003549 | 73 | 208 | 7.0 | 9.0 | 0.00 | 0.00 | 0.00 | 42 | 1017.5 |
| 20260504003046 | 73 | 216 | 7.0 | 8.0 | 0.00 | 0.00 | 0.00 | 42 | 1017.5 |
| 20260504002543 | 73 | 215 | 9.0 | 9.0 | 0.00 | 0.00 | 0.00 | 42 | 1017.7 |
| 20260504002041 | 74 | 199 | 11.0 | 13.0 | 0.00 | 0.00 | 0.00 | 41 | 1017.5 |
| 20260504001538 | 74 | 219 | 5.0 | 7.0 | 0.00 | 0.00 | 0.00 | 41 | 1017.5 |
| 20260504001034 | 74 | 228 | 8.0 | 9.0 | 0.00 | 0.00 | 0.00 | 41 | 1017.7 |
| 20260504000532 | 74 | 136 | 6.0 | 8.0 | 0.00 | 0.00 | 0.00 | 42 | 1017.8 |
| 20260504000029 | 74 | 218 | 9.0 | 10.0 | 0.00 | 0.00 | 0.00 | 41 | 1017.7 |
| 20260503235527 | 74 | 187 | 9.0 | 13.0 | 0.00 | 0.00 | 0.00 | 40 | 1017.9 |
| 20260503235024 | 74 | 203 | 8.0 | 8.0 | 0.00 | 0.00 | 0.00 | 41 | 1018.0 |
| 20260503234521 | 74 | 195 | 9.0 | 10.0 | 0.00 | 0.00 | 0.00 | 41 | 1017.9 |
| 20260503234020 | 75 | 173 | 5.0 | 7.0 | 0.00 | 0.00 | 0.00 | 39 | 1018.0 |
| 20260503233515 | 75 | 164 | 7.0 | 9.0 | 0.00 | 0.00 | 0.00 | 38 | 1017.9 |
| 20260503233011 | 75 | 171 | 9.0 | 13.0 | 0.00 | 0.00 | 0.00 | 38 | 1018.0 |
| 20260503232509 | 75 | 196 | 7.0 | 9.0 | 0.00 | 0.00 | 0.00 | 38 | 1018.0 |
| 20260503232006 | 75 | 215 | 8.0 | 10.0 | 0.00 | 0.00 | 0.00 | 38 | 1018.1 |
| 20260503231504 | 75 | 220 | 3.0 | 3.0 | 0.00 | 0.00 | 0.00 | 40 | 1018.0 |
| 20260503231000 | 75 | 224 | 5.0 | 7.0 | 0.00 | 0.00 | 0.00 | 38 | 1018.1 |
| 20260503230457 | 75 | 237 | 8.0 | 9.0 | 0.00 | 0.00 | 0.00 | 38 | 1018.0 |
| 20260503225954 | 75 | 208 | 8.0 | 10.0 | 0.00 | 0.00 | 0.00 | 39 | 1018.0 |
| 20260503225451 | 76 | 209 | 7.0 | 8.0 | 0.00 | 0.00 | 0.00 | 38 | 1017.8 |
| 20260503224946 | 76 | 203 | 7.0 | 7.0 | 0.00 | 0.00 | 0.00 | 38 | 1018.0 |
| 20260503224444 | 76 | 185 | 10.0 | 11.0 | 0.00 | 0.00 | 0.00 | 36 | 1018.0 |
| 20260503223942 | 77 | 220 | 11.0 | 16.0 | 0.00 | 0.00 | 0.00 | 36 | 1018.0 |
| 20260503223439 | 77 | 176 | 10.0 | 11.0 | 0.00 | 0.00 | 0.00 | 36 | 1018.3 |
| 20260503222934 | 77 | 201 | 3.0 | 5.0 | 0.00 | 0.00 | 0.00 | 36 | 1018.2 |
| 20260503222433 | 77 | 277 | 6.0 | 8.0 | 0.00 | 0.00 | 0.00 | 36 | 1018.6 |
| 20260503221931 | 77 | 199 | 5.0 | 9.0 | 0.00 | 0.00 | 0.00 | 37 | 1018.4 |
| 20260503221429 | 77 | 190 | 9.0 | 10.0 | 0.00 | 0.00 | 0.00 | 36 | 1018.4 |
| 20260503220926 | 77 | 204 | 7.0 | 8.0 | 0.00 | 0.00 | 0.00 | 37 | 1018.4 |
| 20260503220422 | 77 | 254 | 6.0 | 8.0 | 0.00 | 0.00 | 0.00 | 35 | 1018.6 |
| 20260503215919 | 77 | 165 | 6.0 | 8.0 | 0.00 | 0.00 | 0.00 | 35 | 1018.7 |
| 20260503215416 | 77 | 212 | 7.0 | 8.0 | 0.00 | 0.00 | 0.00 | 35 | 1018.7 |
| 20260503214914 | 77 | 128 | 10.0 | 11.0 | 0.00 | 0.00 | 0.00 | 36 | 1018.5 |
| 20260503214411 | 77 | 224 | 9.0 | 10.0 | 0.00 | 0.00 | 0.00 | 37 | 1018.8 |
| 20260503213908 | 78 | 217 | 6.0 | 8.0 | 0.00 | 0.00 | 0.00 | 37 | 1018.7 |
| 20260503213406 | 77 | 223 | 8.0 | 10.0 | 0.00 | 0.00 | 0.00 | 37 | 1019.2 |
| 20260503212902 | 78 | 203 | 9.0 | 13.0 | 0.00 | 0.00 | 0.00 | 35 | 1019.2 |
| 20260503212400 | 77 | 228 | 8.0 | 9.0 | 0.00 | 0.00 | 0.00 | 37 | 1019.3 |
| 20260503211857 | 77 | 222 | 9.0 | 10.0 | 0.00 | 0.00 | 0.00 | 36 | 1019.0 |
| 20260503211354 | 78 | 227 | 9.0 | 11.0 | 0.00 | 0.00 | 0.00 | 36 | 1019.4 |
| 20260503210849 | 77 | 232 | 4.0 | 6.0 | 0.00 | 0.00 | 0.00 | 37 | 1019.5 |
| 20260503210347 | 76 | 216 | 11.0 | 14.0 | 0.00 | 0.00 | 0.00 | 36 | 1019.6 |
| 20260503205841 | 78 | 210 | 7.0 | 9.0 | 0.00 | 0.00 | 0.00 | 36 | 1020.0 |
| 20260503205339 | 78 | 235 | 5.0 | 6.0 | 0.00 | 0.00 | 0.00 | 35 | 1020.1 |
| 20260503204835 | 77 | 275 | 4.0 | 6.0 | 0.00 | 0.00 | 0.00 | 35 | 1019.9 |
| 20260503204332 | 78 | 169 | 10.0 | 11.0 | 0.00 | 0.00 | 0.00 | 33 | 1020.0 |
| 20260503203829 | 78 | 188 | 5.0 | 6.0 | 0.00 | 0.00 | 0.00 | 33 | 1019.9 |
| 20260503203327 | 78 | 116 | 8.0 | 11.0 | 0.00 | 0.00 | 0.00 | 33 | 1020.2 |
| 20260503202823 | 78 | 106 | 6.0 | 8.0 | 0.00 | 0.00 | 0.00 | 34 | 1020.0 |
| 20260503202322 | 77 | 168 | 6.0 | 7.0 | 0.00 | 0.00 | 0.00 | 32 | 1020.1 |
| 20260503201820 | 77 | 170 | 8.0 | 9.0 | 0.00 | 0.00 | 0.00 | 33 | 1020.5 |
| 20260503201316 | 77 | 189 | 7.0 | 11.0 | 0.00 | 0.00 | 0.00 | 35 | 1020.8 |
| 20260503200814 | 77 | 189 | 8.0 | 10.0 | 0.00 | 0.00 | 0.00 | 34 | 1020.6 |
| 20260503200310 | 77 | 168 | 4.0 | 6.0 | 0.00 | 0.00 | 0.00 | 33 | 1020.7 |
| 20260503195807 | 77 | 185 | 7.0 | 8.0 | 0.00 | 0.00 | 0.00 | 33 | 1020.7 |
| 20260503195304 | 77 | 170 | 5.0 | 6.0 | 0.00 | 0.00 | 0.00 | 35 | 1020.9 |
| 20260503194801 | 77 | 178 | 6.0 | 8.0 | 0.00 | 0.00 | 0.00 | 35 | 1020.8 |
| 20260503194256 | 77 | 220 | 5.0 | 7.0 | 0.00 | 0.00 | 0.00 | 36 | 1020.9 |
| 20260503193752 | 77 | 174 | 10.0 | 11.0 | 0.00 | 0.00 | 0.00 | 34 | 1020.8 |
| 20260503193248 | 77 | 224 | 7.0 | 9.0 | 0.00 | 0.00 | 0.00 | 35 | 1020.9 |
| 20260503192739 | 77 | 258 | 3.0 | 5.0 | 0.00 | 0.00 | 0.00 | 36 | 1021.1 |
| 20260503192234 | 77 | 189 | 6.0 | 8.0 | 0.00 | 0.00 | 0.00 | 35 | 1020.9 |
| 20260503191732 | 77 | 172 | 7.0 | 11.0 | 0.00 | 0.00 | 0.00 | 33 | 1021.2 |
| 20260503191229 | 77 | 239 | 7.0 | 8.0 | 0.00 | 0.00 | 0.00 | 35 | 1021.1 |
| 20260503190725 | 77 | 171 | 5.0 | 8.0 | 0.00 | 0.00 | 0.00 | 35 | 1020.9 |
| 20260503190222 | 76 | 203 | 10.0 | 10.0 | 0.00 | 0.00 | 0.00 | 34 | 1021.2 |
| 20260503185720 | 76 | 220 | 7.0 | 8.0 | 0.00 | 0.00 | 0.00 | 34 | 1021.5 |
| 20260503185215 | 76 | 176 | 7.0 | 9.0 | 0.00 | 0.00 | 0.00 | 35 | 1021.5 |
| 20260503184709 | 76 | 178 | 6.0 | 7.0 | 0.00 | 0.00 | 0.00 | 36 | 1021.7 |
| 20260503184206 | 77 | 190 | 6.0 | 8.0 | 0.00 | 0.00 | 0.00 | 34 | 1021.6 |
| 20260503183703 | 77 | 184 | 6.0 | 8.0 | 0.00 | 0.00 | 0.00 | 34 | 1021.8 |
| 20260503183200 | 76 | 195 | 10.0 | 14.0 | 0.00 | 0.00 | 0.00 | 34 | 1021.7 |
| 20260503182658 | 76 | 144 | 7.0 | 8.0 | 0.00 | 0.00 | 0.00 | 36 | 1022.0 |
| 20260503182156 | 77 | 194 | 9.0 | 11.0 | 0.00 | 0.00 | 0.00 | 34 | 1022.0 |
| 20260503181652 | 77 | 272 | 2.0 | 3.0 | 0.00 | 0.00 | 0.00 | 36 | 1022.1 |
| 20260503181149 | 77 | 278 | 6.0 | 9.0 | 0.00 | 0.00 | 0.00 | 37 | 1022.0 |
| 20260503180646 | 76 | 160 | 7.0 | 8.0 | 0.00 | 0.00 | 0.00 | 35 | 1022.5 |
| 20260503180144 | 75 | 273 | 3.0 | 3.0 | 0.00 | 0.00 | 0.00 | 38 | 1022.3 |
| 20260503175641 | 76 | 226 | 6.0 | 9.0 | 0.00 | 0.00 | 0.00 | 41 | 1022.5 |
| 20260503175138 | 75 | 175 | 6.0 | 7.0 | 0.00 | 0.00 | 0.00 | 37 | 1022.8 |
| 20260503174634 | 74 | 232 | 6.0 | 7.0 | 0.00 | 0.00 | 0.00 | 37 | 1022.8 |
| 20260503174132 | 75 | 230 | 10.0 | 10.0 | 0.00 | 0.00 | 0.00 | 40 | 1022.7 |
| 20260503173627 | 75 | 214 | 5.0 | 7.0 | 0.00 | 0.00 | 0.00 | 38 | 1022.8 |
| 20260503173124 | 75 | 225 | 8.0 | 10.0 | 0.00 | 0.00 | 0.00 | 42 | 1022.9 |
| 20260503172620 | 74 | 228 | 6.0 | 10.0 | 0.00 | 0.00 | 0.00 | 42 | 1022.7 |
| 20260503172118 | 74 | 194 | 6.0 | 9.0 | 0.00 | 0.00 | 0.00 | 40 | 1023.2 |
| 20260503171614 | 75 | 227 | 9.0 | 10.0 | 0.00 | 0.00 | 0.00 | 41 | 1023.1 |
| 20260503171112 | 74 | 209 | 8.0 | 11.0 | 0.00 | 0.00 | 0.00 | 43 | 1023.0 |
| 20260503170609 | 74 | 242 | 6.0 | 7.0 | 0.00 | 0.00 | 0.00 | 43 | 1023.2 |
| 20260503170105 | 74 | 243 | 4.0 | 6.0 | 0.00 | 0.00 | 0.00 | 47 | 1023.4 |
| 20260503151000 | 68 | 229 | 4.0 | 5.0 | 0.00 | 0.00 | 0.00 | 63 | 1023.7 |
| 20260503150457 | 69 | 268 | 5.0 | 6.0 | 0.00 | 0.00 | 0.00 | 62 | 1024.0 |
| 20260503131350 | 58 | 261 | 2.0 | 3.0 | 0.00 | 0.00 | 0.00 | 76 | 1023.2 |
| 20260503130847 | 58 | 271 | 2.0 | 2.0 | 0.00 | 0.00 | 0.00 | 77 | 1023.2 |
| 20260503130345 | 57 | 285 | 1.0 | 1.0 | 0.00 | 0.00 | 0.00 | 79 | 1023.3 |
| 20260503110744 | 55 | 288 | 1.0 | 1.0 | 0.00 | 0.00 | 0.00 | 80 | 1021.9 |
| 20260503110241 | 55 | 288 | 1.0 | 1.0 | 0.00 | 0.00 | 0.00 | 79 | 1022.1 |
| 20260503100207 | 56 | 293 | 1.0 | 1.0 | 0.00 | 0.00 | 0.00 | 77 | 1021.8 |
| 20260503090131 | 56 | 268 | 1.0 | 1.0 | 0.00 | 0.00 | 0.00 | 76 | 1021.7 |
| 20260503081602 | 55 | 267 | 1.0 | 1.0 | 0.00 | 0.00 | 0.00 | 85 | 1022.0 |
| 20260503081059 | 55 | 267 | 1.0 | 1.0 | 0.00 | 0.00 | 0.00 | 84 | 1021.8 |
| 20260503080555 | 55 | 267 | 1.0 | 1.0 | 0.00 | 0.00 | 0.00 | 84 | 1021.8 |
| 20260503072529 | 58 | 267 | 1.0 | 1.0 | 0.00 | 0.00 | 0.00 | 76 | 1022.1 |
| 20260503072026 | 57 | 267 | 1.0 | 1.0 | 0.00 | 0.00 | 0.00 | 79 | 1022.0 |
| 20260503071523 | 56 | 267 | 1.0 | 1.0 | 0.00 | 0.00 | 0.00 | 83 | 1022.4 |
| 20260503071020 | 56 | 267 | 1.0 | 1.0 | 0.00 | 0.00 | 0.00 | 83 | 1022.3 |
| 20260503070516 | 56 | 267 | 1.0 | 1.0 | 0.00 | 0.00 | 0.00 | 83 | 1022.4 |
| 20260503054934 | 61 | 281 | 1.0 | 1.0 | 0.00 | 0.00 | 0.00 | 67 | 1022.4 |
| 20260503054430 | 61 | 281 | 1.0 | 1.0 | 0.00 | 0.00 | 0.00 | 68 | 1022.5 |
| 20260503053928 | 61 | 272 | 1.0 | 1.0 | 0.00 | 0.00 | 0.00 | 66 | 1022.5 |
| 20260503053426 | 61 | 262 | 2.0 | 2.0 | 0.00 | 0.00 | 0.00 | 67 | 1022.8 |
| 20260503052922 | 61 | 281 | 1.0 | 1.0 | 0.00 | 0.00 | 0.00 | 68 | 1022.5 |
| 20260503052419 | 60 | 272 | 2.0 | 2.0 | 0.00 | 0.00 | 0.00 | 69 | 1022.6 |
| 20260503051915 | 60 | 281 | 1.0 | 1.0 | 0.00 | 0.00 | 0.00 | 71 | 1022.5 |
| 20260503051412 | 60 | 281 | 1.0 | 1.0 | 0.00 | 0.00 | 0.00 | 70 | 1022.6 |
| 20260503050909 | 60 | 281 | 1.0 | 1.0 | 0.00 | 0.00 | 0.00 | 70 | 1022.8 |
| 20260503050405 | 60 | 261 | 2.0 | 2.0 | 0.00 | 0.00 | 0.00 | 69 | 1022.8 |
| 20260503045902 | 62 | 253 | 2.0 | 2.0 | 0.00 | 0.00 | 0.00 | 68 | 1022.6 |
| 20260503045400 | 63 | 252 | 2.0 | 2.0 | 0.00 | 0.00 | 0.00 | 62 | 1022.4 |
| 20260503044856 | 64 | 244 | 3.0 | 3.0 | 0.00 | 0.00 | 0.00 | 60 | 1022.6 |
| 20260503044353 | 64 | 239 | 3.0 | 3.0 | 0.00 | 0.00 | 0.00 | 60 | 1022.4 |
| 20260503043850 | 64 | 244 | 2.0 | 2.0 | 0.00 | 0.00 | 0.00 | 59 | 1022.6 |
| 20260503043347 | 64 | 236 | 3.0 | 3.0 | 0.00 | 0.00 | 0.00 | 58 | 1022.5 |
| 20260503042843 | 64 | 241 | 2.0 | 2.0 | 0.00 | 0.00 | 0.00 | 59 | 1022.6 |
| 20260503042340 | 64 | 258 | 2.0 | 2.0 | 0.00 | 0.00 | 0.00 | 59 | 1022.3 |
| 20260503041836 | 64 | 260 | 1.0 | 2.0 | 0.00 | 0.00 | 0.00 | 59 | 1022.5 |
| 20260503041334 | 64 | 260 | 2.0 | 2.0 | 0.00 | 0.00 | 0.00 | 59 | 1022.4 |
| 20260503040831 | 64 | 260 | 1.0 | 1.0 | 0.00 | 0.00 | 0.00 | 59 | 1022.3 |
| 20260503040329 | 65 | 260 | 2.0 | 2.0 | 0.00 | 0.00 | 0.00 | 58 | 1022.1 |
| 20260503035826 | 64 | 260 | 2.0 | 2.0 | 0.00 | 0.00 | 0.00 | 58 | 1022.0 |
| 20260503035322 | 65 | 261 | 1.0 | 1.0 | 0.00 | 0.00 | 0.00 | 58 | 1022.1 |
| 20260503034820 | 65 | 261 | 1.0 | 2.0 | 0.00 | 0.00 | 0.00 | 58 | 1022.4 |
| 20260503034317 | 65 | 261 | 1.0 | 1.0 | 0.00 | 0.00 | 0.00 | 58 | 1022.4 |
| 20260503033814 | 65 | 261 | 1.0 | 1.0 | 0.00 | 0.00 | 0.00 | 58 | 1022.4 |
| 20260503033311 | 65 | 261 | 1.0 | 1.0 | 0.00 | 0.00 | 0.00 | 57 | 1022.1 |
| 20260503032810 | 64 | 266 | 1.0 | 1.0 | 0.00 | 0.00 | 0.00 | 58 | 1021.9 |
| 20260503032309 | 64 | 266 | 1.0 | 1.0 | 0.00 | 0.00 | 0.00 | 59 | 1022.1 |
| 20260503031805 | 64 | 264 | 1.0 | 1.0 | 0.00 | 0.00 | 0.00 | 59 | 1021.9 |
| 20260503031303 | 65 | 228 | 2.0 | 2.0 | 0.00 | 0.00 | 0.00 | 57 | 1021.9 |
| 20260503030759 | 66 | 194 | 2.0 | 2.0 | 0.00 | 0.00 | 0.00 | 56 | 1021.8 |
| 20260503030255 | 66 | 169 | 2.0 | 2.0 | 0.00 | 0.00 | 0.00 | 55 | 1021.8 |
| 20260503025752 | 66 | 139 | 2.0 | 2.0 | 0.00 | 0.00 | 0.00 | 55 | 1021.7 |
| 20260503025250 | 66 | 124 | 3.0 | 3.0 | 0.00 | 0.00 | 0.00 | 55 | 1021.9 |
| 20260503024746 | 66 | 119 | 4.0 | 5.0 | 0.00 | 0.00 | 0.00 | 54 | 1021.9 |
| 20260503024244 | 66 | 132 | 3.0 | 3.0 | 0.00 | 0.00 | 0.00 | 54 | 1021.8 |